EHI
1 0 0 0 1 1 1 0 0 0 0 0 0 0 0 0 0 0 0 1 3 5 6 4 3 3 4 2 1 0 0 0 1 3 3 1 0 0 0 0 1 2 3
3 2 1 1 2 3 3 1 0 0 0 0 0 0 0 0 0 0 0 0 1 2 2 3 3 3 3 2 1 0 0 1 3 4 3 2 1 0 0 0 1 3 3
6 7 7 7 8 8 6 3 1 0 0 0 0 0 0 0 0 0 0 0 0 0 0 1 1 1 1 1 0 0 0 1 3 4 3 3 2 1 0 0 1 3 4
9 14 19 19 16 11 7 4 1 0 0 0 0 0 0 0 0 0 0 0 0 0 0 0 0 0 0 0 0 0 0 0 1 1 1 2 2 1 0 0 0 1 2
13 21 27 26 18 11 6 3 1 0 0 0 0 0 0 0 0 0 0 0 0 0 0 0 0 0 0 0 0 0 0 0 0 0 0 1 1 0 0 0 0 0 1
15 21 25 21 13 7 4 1 0 0 0 0 0 0 0 0 0 0 0 0 0 0 0 0 0 0 0 0 0 0 0 0 0 0 0 0 0 0 0 0 0 0 0
10 12 14 11 7 4 2 0 0 0 0 0 0 0 0 0 0 0 0 0 0 0 0 0 0 0 0 0 0 0 0 0 0 0 0 0 0 0 0 0 0 0 0
2 3 4 3 2 1 0 0 0 0 0 0 0 0 0 0 0 0 0 0 0 0 0 0 0 0 0 0 0 0 0 0 0 0 0 0 0 0 0 0 0 0 0
0 0 0 0 0 0 0 0 0 0 0 0 0 0 0 0 0 0 0 0 0 0 0 0 0 0 0 0 0 0 0 0 0 0 0 0 0 0 0 0 0 0 0
0 0 0 0 0 0 0 0 0 0 0 0 0 0 0 0 0 0 0 0 0 0 0 0 0 0 0 0 0 0 0 0 0 0 0 0 0 0 0 0 0 0 0
0 0 0 0 0 0 0 0 0 0 0 0 0 0 0 0 0 0 0 0 0 0 0 0 0 0 0 0 0 0 0 0 0 0 0 0 0 0 0 0 0 0 0
0 0 0 0 0 0 0 0 0 0 0 0 0 0 0 0 0 0 0 0 0 0 0 0 0 0 0 0 0 0 0 0 0 0 0 0 0 0 0 0 0 0 0
0 0 0 0 0 0 0 0 0 0 0 0 0 0 0 0 0 0 0 0 0 0 0 0 0 0 0 0 0 0 0 0 0 0 0 0 0 0 0 0 0 0 0
0 0 0 0 0 0 0 0 0 0 0 0 0 0 0 0 0 0 0 0 0 0 0 0 0 0 0 0 0 0 0 0 0 0 0 0 0 0 0 0 0 0 0
0 0 0 0 0 0 0 0 0 0 0 0 0 0 0 0 0 0 0 0 0 0 0 0 0 0 0 0 0 0 0 0 0 0 0 0 0 0 0 0 0 0 0
0 0 0 0 0 0 0 0 0 0 0 0 0 0 0 0 0 0 0 0 0 0 0 0 0 0 0 0 0 0 0 0 0 0 0 0 0 0 0 0 0 0 0
0 0 0 0 0 0 0 0 0 0 0 0 0 0 0 0 0 0 0 0 0 0 0 0 0 0 0 0 0 0 0 0 0 0 0 0 0 0 0 0 0 0 0
0 0 0 0 0 0 0 0 0 0 0 0 0 0 0 0 0 0 0 0 0 0 0 0 0 0 0 0 0 0 0 0 0 0 0 0 0 0 0 0 0 0 0
0 0 0 0 0 0 0 0 0 0 0 0 0 0 0 0 0 0 0 0 0 0 0 0 0 0 0 0 0 0 0 0 0 0 0 0 0 0 0 0 0 0 0
0 0 0 0 0 0 0 0 0 0 0 0 0 0 0 0 0 0 0 0 0 0 0 0 0 0 0 0 0 0 0 0 0 0 0 0 0 0 0 0 0 0 0
0 0 0 0 0 0 0 0 0 0 0 0 0 0 0 0 0 0 0 0 0 0 0 0 0 0 0 0 0 0 0 0 0 0 0 0 0 0 0 0 0 0 0
0 0 0 0 0 0 0 0 0 0 0 0 0 0 0 0 0 0 0 0 0 0 0 0 0 0 0 0 0 0 0 0 0 0 0 0 0 0 0 0 0 0 0
0 0 0 0 0 0 0 0 0 0 0 0 0 0 0 0 0 0 0 0 0 0 0 0 0 0 0 0 0 0 0 0 0 0 0 0 0 0 0 0 0 0 0
0 0 0 0 0 0 0 0 0 0 0 0 0 0 0 0 0 0 0 0 0 0 0 0 0 0 0 0 0 0 0 0 0 0 0 0 0 0 0 0 0 0 0
0 0 0 0 0 0 0 0 0 0 0 0 0 0 0 0 0 0 0 0 0 0 0 0 0 0 0 0 0 0 0 0 0 0 0 0 0 0 0 0 0 0 0
0 0 0 0 0 0 0 0 0 0 0 0 0 0 0 0 0 0 0 0 0 0 0 0 0 0 0 0 0 0 0 0 0 0 0 0 0 0 0 0 0 0 0
Wind_Speed
5 5 4 3 5 3 5 5 4 3 4 4 2 1 0 1 1 2 4 8 6 4 2 1 2 4 5 6 7 8 8 9 9 9 9 9 9 8 8 8 7 7 7
4 4 5 4 4 3 3 3 3 3 3 2 2 1 1 1 2 2 1 6 8 7 5 4 3 2 4 5 7 8 9 9 9 9 9 10 10 10 10 9 9 8 7
4 4 4 4 3 3 3 2 3 2 2 2 2 1 1 2 2 2 2 2 3 9 9 7 6 5 3 3 3 5 6 7 8 9 9 9 9 9 10 10 9 9 8
4 4 3 2 2 2 2 2 1 2 1 1 1 1 2 1 2 2 2 2 3 1 7 10 9 9 7 6 4 3 2 2 3 5 6 7 7 8 9 9 9 9 9
3 3 2 2 3 3 2 2 3 1 1 1 0 1 2 2 1 1 2 2 2 2 1 7 8 10 9 8 7 6 4 4 3 3 4 5 6 6 7 8 9 9 10
2 2 2 4 4 4 4 4 5 4 2 2 2 2 2 2 2 0 1 1 1 1 1 2 1 5 7 7 7 6 6 5 5 5 6 6 6 7 8 9 10 10 11
2 3 3 5 4 4 5 5 4 3 2 1 2 2 2 2 2 2 2 2 1 1 1 2 3 4 1 4 3 3 5 6 7 7 8 8 9 9 10 11 12 12 13
3 4 5 5 5 5 6 4 3 1 1 1 3 4 4 6 5 4 3 3 3 3 4 4 4 5 6 5 3 1 5 7 9 10 11 11 12 12 13 13 14 15 15
5 5 6 6 6 5 4 4 2 2 2 1 2 4 5 5 2 5 6 5 4 4 6 5 7 7 8 7 8 6 4 8 11 13 14 14 15 15 15 16 17 17 18
7 7 7 7 6 5 5 4 3 1 2 2 2 1 3 5 5 4 6 7 6 7 8 7 9 9 9 9 7 9 9 10 12 14 16 17 17 18 18 18 19 20 20
8 9 9 8 6 5 6 5 4 2 1 0 1 1 1 2 5 6 6 5 6 7 7 7 8 9 10 10 9 10 5 8 13 16 18 19 19 20 20 21 21 22 23
7 9 8 7 6 5 5 5 4 4 3 2 1 2 3 4 5 6 8 8 8 8 7 7 8 9 9 9 12 9 8 11 15 18 19 19 20 21 21 22 23 24 24
7 7 7 6 5 5 5 4 3 3 2 1 2 3 4 5 6 7 9 10 11 10 10 9 8 7 8 9 9 7 11 14 17 18 18 19 20 21 22 23 23 24 25
7 8 7 7 6 5 5 3 3 2 1 1 3 4 6 6 6 7 9 10 12 11 11 11 8 9 9 9 8 6 13 15 17 18 18 19 21 22 23 23 23 24 25
8 8 8 7 6 5 4 3 2 2 1 3 4 4 6 6 6 7 8 9 11 13 12 11 9 9 9 10 10 12 14 15 17 18 20 21 23 23 24 24 24 24 24
9 8 8 7 7 6 4 2 2 2 2 2 4 5 7 7 7 7 7 8 9 11 12 9 10 11 11 12 14 15 16 18 20 21 22 22 22 23 23 24 24 24 24
8 8 7 7 6 5 4 3 3 2 3 4 5 6 7 7 8 8 8 8 9 10 12 11 10 11 13 14 13 14 14 15 13 16 18 19 20 21 23 24 24 24 24
8 7 7 6 5 4 3 2 2 3 4 6 6 7 8 7 8 9 8 9 9 9 11 14 12 12 14 14 14 14 13 12 13 15 16 19 21 22 23 23 24 23 22
7 6 5 5 4 3 2 2 3 4 6 6 7 8 9 9 9 9 9 10 9 9 10 12 13 11 11 12 13 13 14 12 13 13 15 18 21 22 21 21 21 20 18
6 5 4 3 2 2 3 4 5 6 7 7 8 8 9 9 9 10 9 10 10 11 11 11 11 11 11 12 11 10 10 10 11 12 14 14 15 16 18 19 20 21 19
4 3 3 2 1 2 6 8 8 8 8 9 8 8 8 8 10 10 10 12 12 11 11 10 11 11 11 10 10 8 10 10 11 11 11 11 10 10 12 15 19 21 19
3 3 3 3 3 5 7 8 10 10 9 9 9 9 9 8 7 10 13 14 16 15 14 12 11 12 13 12 10 9 10 10 9 8 10 11 11 11 11 10 9 11 14
4 3 3 3 3 6 5 7 10 12 10 9 10 10 9 8 10 10 12 16 17 16 16 14 14 13 13 12 11 11 10 10 11 10 10 11 10 10 9 9 8 10 11
3 3 3 4 3 5 5 7 13 12 9 9 10 10 10 10 8 10 14 15 15 14 13 11 11 12 13 12 11 11 11 10 11 10 8 8 9 9 10 8 6 9 10
3 2 3 3 4 3 4 6 12 10 7 10 10 9 10 10 8 11 14 14 14 13 11 11 13 15 16 16 12 8 8 7 8 9 6 5 7 9 10 7 3 7 9
2 2 3 3 4 4 2 3 10 9 8 9 9 9 7 6 11 14 13 13 13 13 14 14 12 10 10 8 8 7 7 7 6 5 4 4 6 6 6 6 6 3 4
Wind_Direction
213 207 208 212 224 202 193 212 212 178 195 192 200 185 156 62 15 333 106 85 72 67 54 328 267 250 242 235 233 230 228 227 226 221 217 215 215 217 219 218 217 215 215
217 217 210 204 219 218 222 210 191 186 202 169 147 106 297 75 66 318 16 114 88 69 53 36 9 323 271 251 240 232 229 227 225 223 220 217 215 216 218 217 217 217 217
220 225 226 206 205 195 180 200 167 177 165 155 126 87 47 7 40 9 333 323 120 89 63 50 43 31 9 321 280 257 243 234 229 226 224 222 220 220 220 219 217 215 213
229 228 230 208 167 174 171 152 171 164 138 164 80 17 17 19 27 5 345 355 350 27 84 62 53 47 41 29 14 359 341 286 250 239 238 236 233 229 225 223 223 221 220
233 212 197 150 145 133 116 116 87 70 82 53 48 18 344 343 340 27 35 44 54 1 54 95 79 60 48 38 28 21 14 5 347 318 287 271 264 255 246 239 235 232 230
223 182 141 131 132 123 110 99 96 70 49 8 338 4 335 330 296 323 232 125 108 68 13 12 201 101 79 53 34 21 9 360 349 334 311 298 299 294 276 260 251 244 240
156 139 130 125 129 118 116 114 102 98 77 328 257 236 222 233 255 236 251 252 161 264 284 305 303 318 230 147 112 17 345 331 322 311 304 301 302 299 293 277 264 257 252
138 130 137 137 128 120 117 111 111 141 132 282 280 269 246 212 205 216 224 226 254 266 275 274 298 280 291 288 142 231 295 303 300 297 294 293 294 292 288 285 276 267 261
135 129 132 127 122 121 118 112 136 169 176 177 294 284 282 285 217 189 222 240 248 274 277 282 269 274 275 280 280 240 264 291 291 291 289 288 288 286 284 281 279 276 269
113 114 114 109 104 106 110 107 95 120 174 185 177 303 326 334 300 275 209 220 235 256 271 281 283 276 268 267 270 276 263 270 283 287 286 286 285 284 282 280 278 276 273
99 102 100 99 98 97 99 102 100 90 101 319 273 235 246 247 260 280 288 281 260 256 259 263 274 281 280 273 273 273 269 275 282 284 283 282 282 281 281 278 276 274 273
97 96 98 98 101 102 105 105 103 95 68 46 310 282 276 281 286 289 288 284 283 282 283 283 279 276 278 280 280 296 294 284 283 282 281 281 281 280 280 279 277 275 273
104 101 101 102 102 102 104 107 111 105 117 196 271 291 298 295 300 297 293 293 294 291 285 274 270 277 283 285 289 310 284 281 280 277 277 278 278 278 278 278 277 277 276
108 109 108 105 105 110 110 110 119 115 102 278 293 306 294 288 302 296 296 298 295 291 286 289 300 293 294 296 301 309 285 277 271 270 271 273 275 275 274 274 274 274 274
113 111 109 106 103 99 99 114 96 77 13 298 296 291 296 303 292 296 294 291 294 295 295 303 296 300 302 294 301 294 290 286 283 280 274 271 271 271 272 272 271 271 271
104 108 103 102 100 100 101 100 112 59 333 326 319 318 309 306 312 294 289 289 287 288 292 297 299 300 306 299 294 292 289 288 278 270 268 266 265 266 269 269 268 268 268
101 102 104 106 104 100 91 76 46 14 331 329 318 314 308 310 301 305 295 289 287 289 293 298 301 303 299 291 291 289 288 288 285 276 273 271 267 266 266 266 266 266 266
94 98 101 99 94 86 72 50 17 351 334 327 322 315 309 308 305 292 298 298 297 298 293 295 296 294 292 293 292 292 290 288 289 287 277 272 270 268 265 264 263 263 263
95 97 98 97 90 79 60 15 347 334 327 320 316 312 311 307 300 302 302 296 296 294 291 291 293 295 295 296 298 293 292 292 290 286 275 264 263 261 259 257 256 256 255
93 90 87 84 78 54 22 358 338 328 320 315 312 307 303 303 303 306 299 296 298 300 296 294 294 297 298 298 296 296 298 297 296 294 287 280 272 261 256 255 254 254 252
88 88 88 85 53 54 30 0 334 322 320 313 311 308 306 307 298 297 304 309 309 303 300 297 297 297 296 299 299 305 299 298 295 293 293 292 287 278 268 251 246 249 247
84 78 64 51 30 50 45 2 332 323 316 312 314 313 307 291 294 288 284 293 296 294 297 297 295 294 299 303 307 302 296 296 296 295 297 295 292 285 282 275 260 245 240
77 62 45 33 44 74 34 352 336 312 308 314 313 310 310 317 309 313 315 304 293 282 277 281 287 292 298 301 303 300 296 296 294 296 296 292 294 294 291 284 265 247 247
53 45 29 15 6 74 40 347 328 302 307 313 309 307 309 311 325 335 317 305 301 298 294 290 291 295 297 301 300 294 293 291 290 291 296 294 304 306 302 295 265 247 250
41 15 20 357 347 69 62 345 326 313 315 313 309 309 308 310 349 333 311 303 302 302 296 284 279 279 280 279 276 282 286 291 299 308 324 308 307 312 309 307 277 231 245
23 349 11 344 335 350 73 331 324 316 321 316 313 309 304 331 328 317 311 305 303 310 314 310 302 296 293 291 268 269 283 290 299 302 330 316 299 310 304 307 316 301 255